Time,TemperatureF,DewpointF,PressureIn,WindDirection,WindDirectionDegrees,WindSpeedMPH,WindSpeedGustMPH,Humidity,HourlyPrecipIn,Conditions,Clouds,dailyrainin,SoftwareType,DateUTC
2013-02-27 00:03:00,77.5,63.0,30.03,North,0,0.0,0.0,61,0.00,,SCT120,0.00,VWS V14.01,2013-02-27 04:03:00,
2013-02-27 00:08:00,77.4,62.9,30.03,North,0,0.0,0.0,61,0.00,,SCT120,0.00,VWS V14.01,2013-02-27 04:08:00,
2013-02-27 00:13:00,77.2,63.2,30.03,North,0,0.0,0.0,62,0.00,,SCT120,0.00,VWS V14.01,2013-02-27 04:13:00,
2013-02-27 00:18:00,77.0,63.0,30.03,North,0,0.0,0.0,62,0.00,,SCT120,0.00,VWS V14.01,2013-02-27 04:18:00,
2013-02-27 00:23:00,77.0,63.5,30.03,North,0,0.0,0.0,63,0.00,,SCT120,0.00,VWS V14.01,2013-02-27 04:23:00,
2013-02-27 00:28:00,76.8,63.7,30.03,North,0,0.0,0.0,64,0.00,,SCT120,0.00,VWS V14.01,2013-02-27 04:28:00,
2013-02-27 00:33:00,76.5,63.4,30.03,North,0,0.0,0.0,64,0.00,,SCT120,0.00,VWS V14.01,2013-02-27 04:33:00,
2013-02-27 00:38:00,76.3,63.2,30.03,North,0,0.0,0.0,64,0.00,,SCT120,0.00,VWS V14.01,2013-02-27 04:38:00,
2013-02-27 00:43:00,76.3,63.7,30.03,North,0,0.0,0.0,65,0.00,,SCT120,0.00,VWS V14.01,2013-02-27 04:43:00,
2013-02-27 00:48:00,76.3,64.1,30.03,North,0,0.0,0.0,66,0.00,,SCT120,0.00,VWS V14.01,2013-02-27 04:48:00,
2013-02-27 00:53:00,76.3,64.1,30.00,North,0,0.0,0.0,66,0.00,,SCT120,0.00,VWS V14.01,2013-02-27 04:53:00,
2013-02-27 00:58:00,76.1,63.5,30.00,North,0,0.0,0.0,65,0.00,,SCT120,0.00,VWS V14.01,2013-02-27 04:58:00,
2013-02-27 01:00:00,75.9,63.3,30.00,North,0,0.0,0.0,65,0.00,,SCT120,0.00,VWS V14.01,2013-02-27 05:00:00,
2013-02-27 01:05:00,75.7,63.6,30.00,North,0,0.0,0.0,66,0.00,,SCT120,0.00,VWS V14.01,2013-02-27 05:05:00,
2013-02-27 01:10:00,75.4,63.2,30.00,North,0,0.0,0.0,66,0.00,,SCT120,0.00,VWS V14.01,2013-02-27 05:10:00,
2013-02-27 01:15:00,75.0,63.3,30.00,North,0,0.0,0.0,67,0.00,,SCT120,0.00,VWS V14.01,2013-02-27 05:15:00,
2013-02-27 01:20:00,74.8,63.6,30.00,North,0,0.0,0.0,68,0.00,,SCT120,0.00,VWS V14.01,2013-02-27 05:20:00,
2013-02-27 01:25:00,74.8,63.6,30.00,North,0,0.0,0.0,68,0.00,,SCT120,0.00,VWS V14.01,2013-02-27 05:25:00,
2013-02-27 01:30:00,75.2,64.3,30.00,North,0,0.0,0.0,69,0.00,,SCT120,0.00,VWS V14.01,2013-02-27 05:30:00,
2013-02-27 01:35:00,75.2,64.3,30.00,North,0,0.0,0.0,69,0.00,,SCT120,0.00,VWS V14.01,2013-02-27 05:35:00,
2013-02-27 01:40:00,74.8,63.6,30.00,North,0,0.0,0.0,68,0.00,,SCT120,0.00,VWS V14.01,2013-02-27 05:40:00,
2013-02-27 01:45:00,74.5,63.2,30.00,North,0,0.0,0.0,68,0.00,,SCT120,0.00,VWS V14.01,2013-02-27 05:45:00,
2013-02-27 01:50:00,74.3,63.1,30.00,North,0,0.0,0.0,68,0.00,,SCT120,0.00,VWS V14.01,2013-02-27 05:50:00,
2013-02-27 01:55:00,73.9,62.7,30.00,North,0,0.0,0.0,68,0.00,,SCT120,0.00,VWS V14.01,2013-02-27 05:55:00,
2013-02-27 02:00:00,74.1,63.3,30.00,North,0,0.0,0.0,69,0.00,,SCT120,0.00,VWS V14.01,2013-02-27 06:00:00,
2013-02-27 02:05:00,73.9,63.1,30.00,North,0,0.0,0.0,69,0.00,,SCT120,0.00,VWS V14.01,2013-02-27 06:05:00,
2013-02-27 02:10:00,73.9,63.5,30.00,North,0,0.0,0.0,70,0.00,,SCT120,0.00,VWS V14.01,2013-02-27 06:10:00,
2013-02-27 02:15:00,73.9,63.5,30.00,North,0,0.0,0.0,70,0.00,,SCT120,0.00,VWS V14.01,2013-02-27 06:15:00,
2013-02-27 02:20:00,73.8,63.4,30.00,North,0,0.0,0.0,70,0.00,,SCT120,0.00,VWS V14.01,2013-02-27 06:20:00,
2013-02-27 02:25:00,73.6,63.2,30.00,North,0,0.0,0.0,70,0.00,,SCT120,0.00,VWS V14.01,2013-02-27 06:25:00,
2013-02-27 02:30:00,73.6,63.2,30.00,North,0,0.0,0.0,70,0.00,,SCT120,0.00,VWS V14.01,2013-02-27 06:30:00,
2013-02-27 02:35:00,73.4,63.0,30.00,North,0,0.0,0.0,70,0.00,,SCT120,0.00,VWS V14.01,2013-02-27 06:35:00,
2013-02-27 02:40:00,73.4,63.0,29.97,North,0,0.0,0.0,70,0.00,,SCT120,0.00,VWS V14.01,2013-02-27 06:40:00,
2013-02-27 02:45:00,73.4,63.4,29.97,North,0,0.0,0.0,71,0.00,,SCT120,0.00,VWS V14.01,2013-02-27 06:45:00,
2013-02-27 02:50:00,73.2,63.3,29.97,North,0,0.0,0.0,71,0.00,,SCT120,0.00,VWS V14.01,2013-02-27 06:50:00,
2013-02-27 02:55:00,72.9,62.9,29.97,North,0,0.0,0.0,71,0.00,,SCT120,0.00,VWS V14.01,2013-02-27 06:55:00,
2013-02-27 03:00:00,72.9,62.9,29.97,North,0,0.0,0.0,71,0.00,,SCT120,0.00,VWS V14.01,2013-02-27 07:00:00,
2013-02-27 03:05:00,72.9,63.3,29.97,North,0,0.0,0.0,72,0.00,,SCT120,0.00,VWS V14.01,2013-02-27 07:05:00,
2013-02-27 03:10:00,72.7,63.1,30.00,North,0,0.0,0.0,72,0.00,,SCT120,0.00,VWS V14.01,2013-02-27 07:10:00,
2013-02-27 03:15:00,72.7,63.1,30.00,North,0,0.0,0.0,72,0.00,,SCT120,0.00,VWS V14.01,2013-02-27 07:15:00,
2013-02-27 03:20:00,72.7,63.5,30.00,North,0,0.0,0.0,73,0.00,,SCT120,0.00,VWS V14.01,2013-02-27 07:20:00,
2013-02-27 03:25:00,73.0,64.3,29.97,North,0,0.0,0.0,74,0.00,,SCT120,0.00,VWS V14.01,2013-02-27 07:25:00,
2013-02-27 03:30:00,72.9,63.7,29.97,North,0,0.0,0.0,73,0.00,,SCT120,0.00,VWS V14.01,2013-02-27 07:30:00,
2013-02-27 03:35:00,72.5,63.0,29.97,North,0,0.0,0.0,72,0.00,,SCT120,0.00,VWS V14.01,2013-02-27 07:35:00,
2013-02-27 03:40:00,72.1,62.6,29.97,North,0,0.0,0.0,72,0.00,,SCT120,0.00,VWS V14.01,2013-02-27 07:40:00,
2013-02-27 03:45:00,72.0,62.5,29.97,North,0,0.0,0.0,72,0.00,,SCT120,0.00,VWS V14.01,2013-02-27 07:45:00,
2013-02-27 03:50:00,72.1,63.0,29.97,North,0,0.0,0.0,73,0.00,,SCT120,0.00,VWS V14.01,2013-02-27 07:50:00,
2013-02-27 03:55:00,72.0,62.8,29.97,North,0,0.0,0.0,73,0.00,,SCT120,0.00,VWS V14.01,2013-02-27 07:55:00,
2013-02-27 04:00:00,71.8,62.7,29.97,North,0,0.0,0.0,73,0.00,,SCT120,0.00,VWS V14.01,2013-02-27 08:00:00,
2013-02-27 04:05:00,72.0,63.2,29.97,North,0,0.0,0.0,74,0.00,,SCT120,0.00,VWS V14.01,2013-02-27 08:05:00,
2013-02-27 04:10:00,72.0,63.2,29.97,North,0,0.0,0.0,74,0.00,,SCT120,0.00,VWS V14.01,2013-02-27 08:10:00,
2013-02-27 04:15:00,72.1,63.4,29.97,North,0,0.0,0.0,74,0.00,,SCT120,0.00,VWS V14.01,2013-02-27 08:15:00,
2013-02-27 04:20:00,71.8,62.3,29.97,North,0,0.0,0.0,72,0.00,,SCT120,0.00,VWS V14.01,2013-02-27 08:20:00,
2013-02-27 04:25:00,71.4,62.3,29.97,North,0,0.0,0.0,73,0.00,,SCT120,0.00,VWS V14.01,2013-02-27 08:25:00,
2013-02-27 04:30:00,71.4,62.3,29.97,North,0,0.0,0.0,73,0.00,,SCT120,0.00,VWS V14.01,2013-02-27 08:30:00,
2013-02-27 04:35:00,71.4,62.7,29.97,North,0,0.0,0.0,74,0.00,,SCT120,0.00,VWS V14.01,2013-02-27 08:35:00,
2013-02-27 04:40:00,71.2,62.5,30.00,North,0,0.0,0.0,74,0.00,,SCT120,0.00,VWS V14.01,2013-02-27 08:40:00,
2013-02-27 04:45:00,71.1,62.4,30.00,North,0,0.0,0.0,74,0.00,,SCT120,0.00,VWS V14.01,2013-02-27 08:45:00,
2013-02-27 04:50:00,71.1,62.7,30.00,North,0,0.0,0.0,75,0.00,,SCT120,0.00,VWS V14.01,2013-02-27 08:50:00,
2013-02-27 04:55:00,71.2,63.3,30.00,North,0,0.0,0.0,76,0.00,,SCT120,0.00,VWS V14.01,2013-02-27 08:55:00,
2013-02-27 05:00:00,71.2,63.3,30.00,North,0,0.0,0.0,76,0.00,,SCT120,0.00,VWS V14.01,2013-02-27 09:00:00,
2013-02-27 05:05:00,71.2,62.9,30.00,North,0,0.0,0.0,75,0.00,,SCT120,0.00,VWS V14.01,2013-02-27 09:05:00,
2013-02-27 05:10:00,71.2,62.9,30.00,North,0,0.0,0.0,75,0.00,,SCT120,0.00,VWS V14.01,2013-02-27 09:10:00,
2013-02-27 05:15:00,71.4,63.5,30.00,North,0,0.0,0.0,76,0.00,,SCT120,0.00,VWS V14.01,2013-02-27 09:15:00,
2013-02-27 05:20:00,71.6,63.3,30.00,North,0,0.0,0.0,75,0.00,,SCT120,0.00,VWS V14.01,2013-02-27 09:20:00,
2013-02-27 05:25:00,71.6,63.3,30.00,North,0,0.0,0.0,75,0.00,,SCT120,0.00,VWS V14.01,2013-02-27 09:25:00,
2013-02-27 05:30:00,71.6,63.3,30.00,North,0,0.0,0.0,75,0.00,,SCT120,0.00,VWS V14.01,2013-02-27 09:30:00,
2013-02-27 05:35:00,71.8,63.1,30.00,North,0,0.0,0.0,74,0.00,,SCT120,0.00,VWS V14.01,2013-02-27 09:35:00,
2013-02-27 05:40:00,71.2,62.2,30.00,North,0,0.0,0.0,73,0.00,,SCT120,0.00,VWS V14.01,2013-02-27 09:40:00,
2013-02-27 05:45:00,71.1,62.0,30.00,North,0,0.0,0.0,73,0.00,,SCT120,0.00,VWS V14.01,2013-02-27 09:45:00,
2013-02-27 05:50:00,70.9,61.8,30.00,North,0,0.0,0.0,73,0.00,,SCT120,0.00,VWS V14.01,2013-02-27 09:50:00,
2013-02-27 05:55:00,70.9,62.2,30.00,North,0,0.0,0.0,74,0.00,,SCT120,0.00,VWS V14.01,2013-02-27 09:55:00,
2013-02-27 06:00:00,70.9,62.2,30.00,North,0,0.0,0.0,74,0.00,,SCT120,0.00,VWS V14.01,2013-02-27 10:00:00,
2013-02-27 06:05:00,70.7,62.0,30.00,North,0,0.0,0.0,74,0.00,,SCT120,0.00,VWS V14.01,2013-02-27 10:05:00,
2013-02-27 06:11:00,70.9,62.6,30.00,North,0,0.0,0.0,75,0.00,,SCT120,0.00,VWS V14.01,2013-02-27 10:11:00,
2013-02-27 06:16:00,70.9,63.0,30.00,North,0,0.0,0.0,76,0.00,,SCT120,0.00,VWS V14.01,2013-02-27 10:16:00,
2013-02-27 06:21:00,70.9,63.0,30.00,North,0,0.0,0.0,76,0.00,,SCT120,0.00,VWS V14.01,2013-02-27 10:21:00,
2013-02-27 06:26:00,71.1,63.1,30.00,North,0,0.0,0.0,76,0.00,,SCT120,0.00,VWS V14.01,2013-02-27 10:26:00,
2013-02-27 06:31:00,71.1,63.1,30.00,North,0,0.0,0.0,76,0.00,,SCT120,0.00,VWS V14.01,2013-02-27 10:31:00,
2013-02-27 06:36:00,70.9,63.0,30.00,North,0,0.0,0.0,76,0.00,,SCT120,0.00,VWS V14.01,2013-02-27 10:36:00,
2013-02-27 06:41:00,71.1,63.1,30.00,North,0,0.0,0.0,76,0.00,,SCT120,0.00,VWS V14.01,2013-02-27 10:41:00,
2013-02-27 06:46:00,71.1,63.1,30.00,North,0,0.0,0.0,76,0.00,,SCT120,0.00,VWS V14.01,2013-02-27 10:46:00,
2013-02-27 06:51:00,70.9,63.0,30.00,North,0,0.0,0.0,76,0.00,,SCT120,0.00,VWS V14.01,2013-02-27 10:51:00,
2013-02-27 06:56:00,70.7,62.8,30.00,North,0,0.0,0.0,76,0.00,,SCT120,0.00,VWS V14.01,2013-02-27 10:56:00,
2013-02-27 07:01:00,70.9,63.0,30.00,North,0,0.0,0.0,76,0.00,,SCT120,0.00,VWS V14.01,2013-02-27 11:01:00,
2013-02-27 07:06:00,71.1,63.1,30.00,North,0,0.0,0.0,76,0.00,,SCT120,0.00,VWS V14.01,2013-02-27 11:06:00,
2013-02-27 07:11:00,71.2,63.7,30.00,North,0,0.0,0.0,77,0.00,,SCT120,0.00,VWS V14.01,2013-02-27 11:11:00,
2013-02-27 07:16:00,70.9,63.0,30.00,North,0,0.0,0.0,76,0.00,,SCT120,0.00,VWS V14.01,2013-02-27 11:16:00,
2013-02-27 07:21:00,70.9,62.6,30.00,North,0,0.0,0.0,75,0.00,,SCT120,0.00,VWS V14.01,2013-02-27 11:21:00,
2013-02-27 07:26:00,70.9,63.0,30.00,North,0,0.0,0.0,76,0.00,,SCT120,0.00,VWS V14.01,2013-02-27 11:26:00,
2013-02-27 07:31:00,71.1,63.1,30.00,North,0,0.0,0.0,76,0.00,,SCT120,0.00,VWS V14.01,2013-02-27 11:31:00,
2013-02-27 07:36:00,71.4,63.8,30.00,North,0,0.0,0.0,77,0.00,,SCT120,0.00,VWS V14.01,2013-02-27 11:36:00,
2013-02-27 07:41:00,72.0,64.4,30.03,North,0,0.0,0.0,77,0.00,,SCT120,0.00,VWS V14.01,2013-02-27 11:41:00,
2013-02-27 07:46:00,72.7,65.1,30.03,North,0,0.0,0.0,77,0.00,,SCT120,0.00,VWS V14.01,2013-02-27 11:46:00,
2013-02-27 07:51:00,73.2,65.6,30.03,North,0,0.0,0.0,77,0.00,,SCT120,0.00,VWS V14.01,2013-02-27 11:51:00,
2013-02-27 07:56:00,73.8,65.7,30.03,North,0,0.0,0.0,76,0.00,,SCT120,0.00,VWS V14.01,2013-02-27 11:56:00,
2013-02-27 08:01:00,74.1,66.1,30.03,North,0,0.0,0.0,76,0.00,,SCT120,0.00,VWS V14.01,2013-02-27 12:01:00,
2013-02-27 08:06:00,74.5,64.9,30.03,North,0,0.0,0.0,72,0.00,,SCT120,0.00,VWS V14.01,2013-02-27 12:06:00,
2013-02-27 08:11:00,75.0,64.2,30.03,North,0,0.0,0.0,69,0.00,,SCT120,0.00,VWS V14.01,2013-02-27 12:11:00,
2013-02-27 08:16:00,75.6,64.3,30.03,North,0,0.0,0.0,68,0.00,,SCT120,0.00,VWS V14.01,2013-02-27 12:16:00,
2013-02-27 08:21:00,75.9,64.2,30.03,North,0,0.0,0.0,67,0.00,,SCT120,0.00,VWS V14.01,2013-02-27 12:21:00,
2013-02-27 08:26:00,76.1,63.5,30.03,North,0,0.0,0.0,65,0.00,,SCT120,0.00,VWS V14.01,2013-02-27 12:26:00,
2013-02-27 08:31:00,76.8,63.7,30.03,North,0,0.0,0.0,64,0.00,,SCT120,0.00,VWS V14.01,2013-02-27 12:31:00,
2013-02-27 08:36:00,77.4,62.9,30.03,North,0,0.0,0.0,61,0.00,,SCT120,0.00,VWS V14.01,2013-02-27 12:36:00,
2013-02-27 08:41:00,77.5,62.6,30.03,North,0,0.0,0.0,60,0.00,,SCT120,0.00,VWS V14.01,2013-02-27 12:41:00,
2013-02-27 08:46:00,77.7,61.8,30.03,North,0,0.0,0.0,58,0.00,,SCT120,0.00,VWS V14.01,2013-02-27 12:46:00,
2013-02-27 08:51:00,77.7,61.8,30.03,North,0,0.0,0.0,58,0.00,,SCT120,0.00,VWS V14.01,2013-02-27 12:51:00,
2013-02-27 08:56:00,77.9,62.0,30.03,North,0,0.0,0.0,58,0.00,,SCT120,0.00,VWS V14.01,2013-02-27 12:56:00,
2013-02-27 09:01:00,78.3,61.8,30.03,North,0,0.0,0.0,57,0.00,,SCT120,0.00,VWS V14.01,2013-02-27 13:01:00,
2013-02-27 09:06:00,78.8,61.3,30.03,North,0,0.0,0.0,55,0.00,,SCT120,0.00,VWS V14.01,2013-02-27 13:06:00,
2013-02-27 09:11:00,79.3,61.3,30.03,North,0,0.0,0.0,54,0.00,,SCT120,0.00,VWS V14.01,2013-02-27 13:11:00,
2013-02-27 09:16:00,80.2,59.9,30.03,North,0,0.0,0.0,50,0.00,,SCT120,0.00,VWS V14.01,2013-02-27 13:16:00,
2013-02-27 09:21:00,80.6,59.1,30.03,North,0,0.0,0.0,48,0.00,,SCT120,0.00,VWS V14.01,2013-02-27 13:21:00,
2013-02-27 09:26:00,80.6,57.9,30.03,North,0,0.0,0.0,46,0.00,,SCT120,0.00,VWS V14.01,2013-02-27 13:26:00,
2013-02-27 09:31:00,80.8,58.1,30.03,North,0,0.0,0.0,46,0.00,,SCT120,0.00,VWS V14.01,2013-02-27 13:31:00,
2013-02-27 09:36:00,81.3,56.1,30.03,North,0,0.0,0.0,42,0.00,,SCT120,0.00,VWS V14.01,2013-02-27 13:36:00,
2013-02-27 09:41:00,81.5,54.9,30.03,North,0,0.0,0.0,40,0.00,,SCT120,0.00,VWS V14.01,2013-02-27 13:41:00,
2013-02-27 09:46:00,81.3,51.8,30.03,North,0,0.0,0.0,36,0.00,,SCT120,0.00,VWS V14.01,2013-02-27 13:46:00,
2013-02-27 09:51:00,81.3,49.5,30.03,North,0,0.0,0.0,33,0.00,,SCT120,0.00,VWS V14.01,2013-02-27 13:51:00,
2013-02-27 09:56:00,82.2,49.5,30.03,North,0,0.0,0.0,32,0.00,,SCT120,0.00,VWS V14.01,2013-02-27 13:56:00,
2013-02-27 10:01:00,83.1,48.5,30.03,North,0,0.0,0.0,30,0.00,,SCT120,0.00,VWS V14.01,2013-02-27 14:01:00,
2013-02-27 10:06:00,83.3,47.8,30.03,North,0,0.0,0.0,29,0.00,,SCT120,0.00,VWS V14.01,2013-02-27 14:06:00,
2013-02-27 10:11:00,83.3,47.8,30.03,North,0,0.0,0.0,29,0.00,,SCT120,0.00,VWS V14.01,2013-02-27 14:11:00,
2013-02-27 10:16:00,83.7,45.2,30.03,North,0,0.0,0.0,26,0.00,,SCT120,0.00,VWS V14.01,2013-02-27 14:16:00,
2013-02-27 10:21:00,84.2,44.6,30.03,North,0,0.0,0.0,25,0.00,,SCT120,0.00,VWS V14.01,2013-02-27 14:21:00,
2013-02-27 10:26:00,84.9,43.0,30.03,North,0,0.0,0.0,23,0.00,,SCT120,0.00,VWS V14.01,2013-02-27 14:26:00,
2013-02-27 10:31:00,85.6,42.5,30.03,North,0,0.0,0.0,22,0.00,,SCT120,0.00,VWS V14.01,2013-02-27 14:31:00,
2013-02-27 10:37:00,86.0,41.6,30.03,North,0,0.0,0.0,21,0.00,,SCT120,0.00,VWS V14.01,2013-02-27 14:37:00,
2013-02-27 10:42:00,86.5,42.0,30.03,North,0,0.0,0.0,21,0.00,,SCT120,0.00,VWS V14.01,2013-02-27 14:42:00,
2013-02-27 10:47:00,86.9,39.7,30.03,North,0,0.0,0.0,19,0.00,,SCT120,0.00,VWS V14.01,2013-02-27 14:47:00,
2013-02-27 10:52:00,86.9,39.7,30.03,North,0,0.0,0.0,19,0.00,,SCT120,0.00,VWS V14.01,2013-02-27 14:52:00,
2013-02-27 10:57:00,87.1,39.9,30.03,North,0,0.0,0.0,19,0.00,,SCT120,0.00,VWS V14.01,2013-02-27 14:57:00,
2013-02-27 11:02:00,87.4,40.2,30.03,North,0,0.0,0.0,19,0.00,,SCT120,0.00,VWS V14.01,2013-02-27 15:02:00,
2013-02-27 11:07:00,87.3,38.6,30.03,North,0,0.0,0.0,18,0.00,,SCT120,0.00,VWS V14.01,2013-02-27 15:07:00,
2013-02-27 11:12:00,87.6,38.9,30.03,North,0,0.0,0.0,18,0.00,,SCT120,0.00,VWS V14.01,2013-02-27 15:12:00,
2013-02-27 11:17:00,88.2,39.4,30.03,North,0,0.0,0.0,18,0.00,,SCT120,0.00,VWS V14.01,2013-02-27 15:17:00,
2013-02-27 11:22:00,88.5,39.7,30.03,North,0,0.0,0.0,18,0.00,,SCT120,0.00,VWS V14.01,2013-02-27 15:22:00,
2013-02-27 11:27:00,88.5,39.7,30.03,North,0,0.0,0.0,18,0.00,,SCT120,0.00,VWS V14.01,2013-02-27 15:27:00,
2013-02-27 11:32:00,88.9,39.9,30.03,North,0,0.0,0.0,18,0.00,,SCT120,0.00,VWS V14.01,2013-02-27 15:32:00,
2013-02-27 11:37:00,89.4,40.4,30.03,North,0,0.0,0.0,18,0.00,,SCT120,0.00,VWS V14.01,2013-02-27 15:37:00,
2013-02-27 11:42:00,89.4,40.4,30.03,North,0,0.0,0.0,18,0.00,,SCT120,0.00,VWS V14.01,2013-02-27 15:42:00,
2013-02-27 11:47:00,89.8,36.0,30.03,North,0,0.0,0.0,15,0.00,,SCT120,0.00,VWS V14.01,2013-02-27 15:47:00,
2013-02-27 11:52:00,90.0,30.6,30.03,North,0,0.0,0.0,12,0.00,,SCT120,0.00,VWS V14.01,2013-02-27 15:52:00,
2013-02-27 11:57:00,90.1,30.7,30.03,North,0,0.0,0.0,12,0.00,,SCT120,0.00,VWS V14.01,2013-02-27 15:57:00,
2013-02-27 12:02:00,90.0,30.6,30.03,North,0,0.0,0.0,12,0.00,,SCT120,0.00,VWS V14.01,2013-02-27 16:02:00,
2013-02-27 12:07:00,89.6,30.3,30.03,North,0,0.0,0.0,12,0.00,,SCT120,0.00,VWS V14.01,2013-02-27 16:07:00,
2013-02-27 12:12:00,90.3,26.4,30.00,North,0,0.0,0.0,10,0.00,,SCT120,0.00,VWS V14.01,2013-02-27 16:12:00,
2013-02-27 12:17:00,91.0,27.0,30.00,North,0,0.0,0.0,10,0.00,,SCT120,0.00,VWS V14.01,2013-02-27 16:17:00,
2013-02-27 12:22:00,91.0,18.5,30.00,North,0,0.0,0.0,7,0.00,,SCT120,0.00,VWS V14.01,2013-02-27 16:22:00,
2013-02-27 12:27:00,90.9,18.4,30.00,North,0,0.0,0.0,7,0.00,,SCT120,0.00,VWS V14.01,2013-02-27 16:27:00,
2013-02-27 12:32:00,90.9,18.4,30.00,North,0,0.0,0.0,7,0.00,,SCT120,0.00,VWS V14.01,2013-02-27 16:32:00,
2013-02-27 12:37:00,90.9,18.4,30.00,North,0,0.0,0.0,7,0.00,,SCT120,0.00,VWS V14.01,2013-02-27 16:37:00,
2013-02-27 12:42:00,90.9,18.4,30.00,North,0,0.0,0.0,7,0.00,,SCT120,0.00,VWS V14.01,2013-02-27 16:42:00,
2013-02-27 12:47:00,90.9,18.4,30.00,North,0,0.0,0.0,7,0.00,,SCT120,0.00,VWS V14.01,2013-02-27 16:47:00,
2013-02-27 12:52:00,91.8,19.0,30.00,North,0,0.0,0.0,7,0.00,,SCT120,0.00,VWS V14.01,2013-02-27 16:52:00,
2013-02-27 12:57:00,91.8,19.0,30.00,North,0,0.0,0.0,7,0.00,,SCT120,0.00,VWS V14.01,2013-02-27 16:57:00,
2013-02-27 13:02:00,91.8,19.0,30.00,North,0,0.0,0.0,7,0.00,,SCT120,0.00,VWS V14.01,2013-02-27 17:02:00,
2013-02-27 13:07:00,91.9,19.2,30.00,North,0,0.0,0.0,7,0.00,,SCT120,0.00,VWS V14.01,2013-02-27 17:07:00,
2013-02-27 13:12:00,92.5,19.6,29.97,North,0,0.0,0.0,7,0.00,,SCT120,0.00,VWS V14.01,2013-02-27 17:12:00,
2013-02-27 13:17:00,92.5,19.6,29.97,North,0,0.0,0.0,7,0.00,,SCT120,0.00,VWS V14.01,2013-02-27 17:17:00,
2013-02-27 13:22:00,91.9,19.2,29.97,North,0,0.0,0.0,7,0.00,,SCT120,0.00,VWS V14.01,2013-02-27 17:22:00,
2013-02-27 13:27:00,92.3,19.4,29.97,North,0,0.0,0.0,7,0.00,,SCT120,0.00,VWS V14.01,2013-02-27 17:27:00,
2013-02-27 13:32:00,93.0,20.0,29.97,North,0,0.0,0.0,7,0.00,,SCT120,0.00,VWS V14.01,2013-02-27 17:32:00,
2013-02-27 13:37:00,93.2,16.5,29.97,North,0,0.0,0.0,6,0.00,,SCT120,0.00,VWS V14.01,2013-02-27 17:37:00,
2013-02-27 13:42:00,93.4,16.6,29.97,North,0,0.0,0.0,6,0.00,,SCT120,0.00,VWS V14.01,2013-02-27 17:42:00,
2013-02-27 13:47:00,93.2,16.5,29.97,North,0,0.0,0.0,6,0.00,,SCT120,0.00,VWS V14.01,2013-02-27 17:47:00,
2013-02-27 13:52:00,93.6,16.8,29.97,North,0,0.0,0.0,6,0.00,,SCT120,0.00,VWS V14.01,2013-02-27 17:52:00,
2013-02-27 13:57:00,93.4,16.6,29.97,North,0,0.0,0.0,6,0.00,,SCT120,0.00,VWS V14.01,2013-02-27 17:57:00,
2013-02-27 14:02:00,93.7,16.9,29.97,North,0,0.0,0.0,6,0.00,,SCT120,0.00,VWS V14.01,2013-02-27 18:02:00,
2013-02-27 14:07:00,93.7,16.9,29.97,North,0,0.0,0.0,6,0.00,,SCT120,0.00,VWS V14.01,2013-02-27 18:07:00,
2013-02-27 14:12:00,94.3,17.3,29.94,North,0,0.0,0.0,6,0.00,,SCT120,0.00,VWS V14.01,2013-02-27 18:12:00,
2013-02-27 14:17:00,94.3,17.3,29.94,North,0,0.0,0.0,6,0.00,,SCT120,0.00,VWS V14.01,2013-02-27 18:17:00,
2013-02-27 14:22:00,94.3,17.3,29.94,North,0,0.0,0.0,6,0.00,,SCT120,0.00,VWS V14.01,2013-02-27 18:22:00,
2013-02-27 14:27:00,94.3,17.3,29.94,North,0,0.0,0.0,6,0.00,,SCT120,0.00,VWS V14.01,2013-02-27 18:27:00,
2013-02-27 14:32:00,94.1,17.1,29.94,North,0,0.0,0.0,6,0.00,,SCT120,0.00,VWS V14.01,2013-02-27 18:32:00,
2013-02-27 14:37:00,93.9,17.0,29.94,North,0,0.0,0.0,6,0.00,,SCT120,0.00,VWS V14.01,2013-02-27 18:37:00,
2013-02-27 14:42:00,94.1,17.1,29.94,North,0,0.0,0.0,6,0.00,,SCT120,0.00,VWS V14.01,2013-02-27 18:42:00,
2013-02-27 14:47:00,93.4,16.6,29.94,North,0,0.0,0.0,6,0.00,,SCT120,0.00,VWS V14.01,2013-02-27 18:47:00,
2013-02-27 14:52:00,93.9,17.0,29.94,North,0,0.0,0.0,6,0.00,,SCT120,0.00,VWS V14.01,2013-02-27 18:52:00,
2013-02-27 14:57:00,93.9,17.0,29.94,North,0,0.0,0.0,6,0.00,,SCT120,0.00,VWS V14.01,2013-02-27 18:57:00,
2013-02-27 15:02:00,94.3,17.3,29.94,North,0,0.0,0.0,6,0.00,,SCT120,0.00,VWS V14.01,2013-02-27 19:02:00,
2013-02-27 15:07:00,93.9,17.0,29.94,North,0,0.0,0.0,6,0.00,,SCT120,0.00,VWS V14.01,2013-02-27 19:07:00,
2013-02-27 15:12:00,93.6,16.8,29.94,North,0,0.0,0.0,6,0.00,,SCT120,0.00,VWS V14.01,2013-02-27 19:12:00,
2013-02-27 15:17:00,93.6,16.8,29.94,North,0,0.0,0.0,6,0.00,,SCT120,0.00,VWS V14.01,2013-02-27 19:17:00,
2013-02-27 15:22:00,93.9,17.0,29.94,North,0,0.0,0.0,6,0.00,,SCT120,0.00,VWS V14.01,2013-02-27 19:22:00,
2013-02-27 15:27:00,94.3,17.3,29.91,North,0,0.0,0.0,6,0.00,,SCT120,0.00,VWS V14.01,2013-02-27 19:27:00,
2013-02-27 15:32:00,93.7,16.9,29.91,North,0,0.0,0.0,6,0.00,,SCT120,0.00,VWS V14.01,2013-02-27 19:32:00,
2013-02-27 15:37:00,93.0,20.0,29.91,North,0,0.0,0.0,7,0.00,,SCT120,0.00,VWS V14.01,2013-02-27 19:37:00,
2013-02-27 15:42:00,93.2,16.5,29.91,North,0,0.0,0.0,6,0.00,,SCT120,0.00,VWS V14.01,2013-02-27 19:42:00,
2013-02-27 15:47:00,93.4,16.6,29.91,North,0,0.0,0.0,6,0.00,,SCT120,0.00,VWS V14.01,2013-02-27 19:47:00,
2013-02-27 15:52:00,93.0,20.0,29.91,North,0,0.0,0.0,7,0.00,,SCT120,0.00,VWS V14.01,2013-02-27 19:52:00,
2013-02-27 15:57:00,93.2,16.5,29.91,North,0,0.0,0.0,6,0.00,,SCT120,0.00,VWS V14.01,2013-02-27 19:57:00,
2013-02-27 16:02:00,93.0,20.0,29.91,North,0,0.0,0.0,7,0.00,,SCT120,0.00,VWS V14.01,2013-02-27 20:02:00,
2013-02-27 16:07:00,93.4,16.6,29.91,North,0,0.0,0.0,6,0.00,,SCT120,0.00,VWS V14.01,2013-02-27 20:07:00,
2013-02-27 16:12:00,93.2,16.5,29.91,North,0,0.0,0.0,6,0.00,,SCT120,0.00,VWS V14.01,2013-02-27 20:12:00,
2013-02-27 16:17:00,92.7,19.7,29.91,North,0,0.0,0.0,7,0.00,,SCT120,0.00,VWS V14.01,2013-02-27 20:17:00,
2013-02-27 16:22:00,92.5,19.6,29.91,North,0,0.0,0.0,7,0.00,,SCT120,0.00,VWS V14.01,2013-02-27 20:22:00,
2013-02-27 16:27:00,91.9,19.2,29.91,North,0,0.0,0.0,7,0.00,,SCT120,0.00,VWS V14.01,2013-02-27 20:27:00,
2013-02-27 16:32:00,92.1,19.3,29.91,North,0,0.0,0.0,7,0.00,,SCT120,0.00,VWS V14.01,2013-02-27 20:32:00,
2013-02-27 16:37:00,91.8,19.0,29.91,North,0,0.0,0.0,7,0.00,,SCT120,0.00,VWS V14.01,2013-02-27 20:37:00,
2013-02-27 16:42:00,91.0,18.5,29.91,North,0,0.0,0.0,7,0.00,,SCT120,0.00,VWS V14.01,2013-02-27 20:42:00,
2013-02-27 16:47:00,90.9,18.4,29.91,North,0,0.0,0.0,7,0.00,,SCT120,0.00,VWS V14.01,2013-02-27 20:47:00,
2013-02-27 16:52:00,90.3,18.0,29.91,North,0,0.0,0.0,7,0.00,,SCT120,0.00,VWS V14.01,2013-02-27 20:52:00,
2013-02-27 16:57:00,90.5,26.6,29.91,North,0,0.0,0.0,10,0.00,,SCT120,0.00,VWS V14.01,2013-02-27 20:57:00,
2013-02-27 17:02:00,90.1,17.9,29.91,North,0,0.0,0.0,7,0.00,,SCT120,0.00,VWS V14.01,2013-02-27 21:02:00,
2013-02-27 17:07:00,90.1,26.3,29.91,North,0,0.0,0.0,10,0.00,,SCT120,0.00,VWS V14.01,2013-02-27 21:07:00,
2013-02-27 17:12:00,89.8,26.0,29.91,North,0,0.0,0.0,10,0.00,,SCT120,0.00,VWS V14.01,2013-02-27 21:12:00,
2013-02-27 17:17:00,89.6,30.3,29.91,North,0,0.0,0.0,12,0.00,,SCT120,0.00,VWS V14.01,2013-02-27 21:17:00,
2013-02-27 17:22:00,89.2,32.0,29.91,North,0,0.0,0.0,13,0.00,,SCT120,0.00,VWS V14.01,2013-02-27 21:22:00,
2013-02-27 17:27:00,89.1,35.5,29.91,North,0,0.0,0.0,15,0.00,,SCT120,0.00,VWS V14.01,2013-02-27 21:27:00,
2013-02-27 17:32:00,88.9,35.3,29.91,North,0,0.0,0.0,15,0.00,,SCT120,0.00,VWS V14.01,2013-02-27 21:32:00,
2013-02-27 17:37:00,88.3,39.5,29.91,North,0,0.0,0.0,18,0.00,,SCT120,0.00,VWS V14.01,2013-02-27 21:37:00,
2013-02-27 17:42:00,88.3,39.5,29.91,North,0,0.0,0.0,18,0.00,,SCT120,0.00,VWS V14.01,2013-02-27 21:42:00,
2013-02-27 17:47:00,87.8,39.1,29.91,North,0,0.0,0.0,18,0.00,,SCT120,0.00,VWS V14.01,2013-02-27 21:47:00,
2013-02-27 17:52:00,87.4,40.2,29.91,North,0,0.0,0.0,19,0.00,,SCT120,0.00,VWS V14.01,2013-02-27 21:52:00,
2013-02-27 17:57:00,87.1,39.9,29.94,North,0,0.0,0.0,19,0.00,,SCT120,0.00,VWS V14.01,2013-02-27 21:57:00,
2013-02-27 18:02:00,86.9,41.0,29.94,North,0,0.0,0.0,20,0.00,,SCT120,0.00,VWS V14.01,2013-02-27 22:02:00,
2013-02-27 18:07:00,86.4,40.6,29.94,North,0,0.0,0.0,20,0.00,,SCT120,0.00,VWS V14.01,2013-02-27 22:07:00,
2013-02-27 18:13:00,86.0,41.6,29.94,North,0,0.0,0.0,21,0.00,,SCT120,0.00,VWS V14.01,2013-02-27 22:13:00,
2013-02-27 18:17:00,85.5,43.5,29.94,North,0,0.0,0.0,23,0.00,,SCT120,0.00,VWS V14.01,2013-02-27 22:17:00,
2013-02-27 18:23:00,85.3,43.3,29.94,North,0,0.0,0.0,23,0.00,,SCT120,0.00,VWS V14.01,2013-02-27 22:23:00,
2013-02-27 18:28:00,84.9,44.1,29.94,North,0,0.0,0.0,24,0.00,,SCT120,0.00,VWS V14.01,2013-02-27 22:28:00,
2013-02-27 18:33:00,84.4,43.7,29.94,North,0,0.0,0.0,24,0.00,,SCT120,0.00,VWS V14.01,2013-02-27 22:33:00,
2013-02-27 18:38:00,84.2,45.6,29.94,North,0,0.0,0.0,26,0.00,,SCT120,0.00,VWS V14.01,2013-02-27 22:38:00,
2013-02-27 18:43:00,83.8,46.3,29.94,North,0,0.0,0.0,27,0.00,,SCT120,0.00,VWS V14.01,2013-02-27 22:43:00,
2013-02-27 18:48:00,83.7,47.1,29.94,North,0,0.0,0.0,28,0.00,,SCT120,0.00,VWS V14.01,2013-02-27 22:48:00,
2013-02-27 18:53:00,83.5,47.9,29.94,North,0,0.0,0.0,29,0.00,,SCT120,0.00,VWS V14.01,2013-02-27 22:53:00,
2013-02-27 18:58:00,83.1,47.6,29.94,North,0,0.0,0.0,29,0.00,,SCT120,0.00,VWS V14.01,2013-02-27 22:58:00,
2013-02-27 19:03:00,82.9,47.5,29.94,North,0,0.0,0.0,29,0.00,,SCT120,0.00,VWS V14.01,2013-02-27 23:03:00,
2013-02-27 19:08:00,82.8,48.2,29.94,North,0,0.0,0.0,30,0.00,,SCT120,0.00,VWS V14.01,2013-02-27 23:08:00,
2013-02-27 19:13:00,82.6,48.0,29.94,North,0,0.0,0.0,30,0.00,,SCT120,0.00,VWS V14.01,2013-02-27 23:13:00,
2013-02-27 19:18:00,82.4,47.9,29.94,North,0,0.0,0.0,30,0.00,,SCT120,0.00,VWS V14.01,2013-02-27 23:18:00,
2013-02-27 19:23:00,82.2,48.6,29.94,North,0,0.0,0.0,31,0.00,,SCT120,0.00,VWS V14.01,2013-02-27 23:23:00,
2013-02-27 19:28:00,82.0,48.5,29.94,North,0,0.0,0.0,31,0.00,,SCT120,0.00,VWS V14.01,2013-02-27 23:28:00,
2013-02-27 19:33:00,81.7,49.0,29.94,North,0,0.0,0.0,32,0.00,,SCT120,0.00,VWS V14.01,2013-02-27 23:33:00,
2013-02-27 19:38:00,81.7,49.0,29.94,North,0,0.0,0.0,32,0.00,,SCT120,0.00,VWS V14.01,2013-02-27 23:38:00,
2013-02-27 19:43:00,81.7,49.0,29.97,North,0,0.0,0.0,32,0.00,,SCT120,0.00,VWS V14.01,2013-02-27 23:43:00,
2013-02-27 19:48:00,81.7,49.0,29.97,North,0,0.0,0.0,32,0.00,,SCT120,0.00,VWS V14.01,2013-02-27 23:48:00,
2013-02-27 19:53:00,81.7,49.0,29.97,North,0,0.0,0.0,32,0.00,,SCT120,0.00,VWS V14.01,2013-02-27 23:53:00,
2013-02-27 19:58:00,81.7,49.8,29.97,North,0,0.0,0.0,33,0.00,,SCT120,0.00,VWS V14.01,2013-02-27 23:58:00,
2013-02-27 20:03:00,81.5,49.7,29.97,North,0,0.0,0.0,33,0.00,,SCT120,0.00,VWS V14.01,2013-02-28 00:03:00,
2013-02-27 20:08:00,81.5,49.7,29.97,North,0,0.0,0.0,33,0.00,,SCT120,0.00,VWS V14.01,2013-02-28 00:08:00,
2013-02-27 20:13:00,81.3,50.3,29.97,North,0,0.0,0.0,34,0.00,,SCT120,0.00,VWS V14.01,2013-02-28 00:13:00,
2013-02-27 20:18:00,81.1,50.1,29.97,North,0,0.0,0.0,34,0.00,,SCT120,0.00,VWS V14.01,2013-02-28 00:18:00,
2013-02-27 20:23:00,81.1,50.1,29.97,North,0,0.0,0.0,34,0.00,,SCT120,0.00,VWS V14.01,2013-02-28 00:23:00,
2013-02-27 20:28:00,81.0,50.0,29.97,North,0,0.0,0.0,34,0.00,,SCT120,0.00,VWS V14.01,2013-02-28 00:28:00,
2013-02-27 20:33:00,81.0,50.8,29.97,North,0,0.0,0.0,35,0.00,,SCT120,0.00,VWS V14.01,2013-02-28 00:33:00,
2013-02-27 20:38:00,80.8,50.6,29.97,North,0,0.0,0.0,35,0.00,,SCT120,0.00,VWS V14.01,2013-02-28 00:38:00,
2013-02-27 20:43:00,80.6,50.5,30.00,North,0,0.0,0.0,35,0.00,,SCT120,0.00,VWS V14.01,2013-02-28 00:43:00,
2013-02-27 20:48:00,80.2,50.9,30.00,North,0,0.0,0.0,36,0.00,,SCT120,0.00,VWS V14.01,2013-02-28 00:48:00,
2013-02-27 20:53:00,80.2,51.6,30.00,North,0,0.0,0.0,37,0.00,,SCT120,0.00,VWS V14.01,2013-02-28 00:53:00,
2013-02-27 20:58:00,80.4,51.8,30.00,North,0,0.0,0.0,37,0.00,,SCT120,0.00,VWS V14.01,2013-02-28 00:58:00,
2013-02-27 21:03:00,80.4,51.8,30.00,North,0,0.0,0.0,37,0.00,,SCT120,0.00,VWS V14.01,2013-02-28 01:03:00,
2013-02-27 21:08:00,80.1,51.5,30.00,North,0,0.0,0.0,37,0.00,,SCT120,0.00,VWS V14.01,2013-02-28 01:08:00,
2013-02-27 21:13:00,79.5,51.0,30.00,North,0,0.0,0.0,37,0.00,,SCT120,0.00,VWS V14.01,2013-02-28 01:13:00,
2013-02-27 21:18:00,79.5,51.7,30.00,North,0,0.0,0.0,38,0.00,,SCT120,0.00,VWS V14.01,2013-02-28 01:18:00,
2013-02-27 21:23:00,79.7,51.9,30.00,North,0,0.0,0.0,38,0.00,,SCT120,0.00,VWS V14.01,2013-02-28 01:23:00,
2013-02-27 21:28:00,79.9,52.0,30.00,North,0,0.0,0.0,38,0.00,,SCT120,0.00,VWS V14.01,2013-02-28 01:28:00,
2013-02-27 21:33:00,79.9,52.0,30.00,North,0,0.0,0.0,38,0.00,,SCT120,0.00,VWS V14.01,2013-02-28 01:33:00,
2013-02-27 21:38:00,79.5,51.7,30.00,North,0,0.0,0.0,38,0.00,,SCT120,0.00,VWS V14.01,2013-02-28 01:38:00,
2013-02-27 21:43:00,79.2,51.4,30.00,North,0,0.0,0.0,38,0.00,,SCT120,0.00,VWS V14.01,2013-02-28 01:43:00,
2013-02-27 21:48:00,78.6,52.3,30.00,North,0,0.0,0.0,40,0.00,,SCT120,0.00,VWS V14.01,2013-02-28 01:48:00,
2013-02-27 21:53:00,78.3,52.7,30.00,North,0,0.0,0.0,41,0.00,,SCT120,0.00,VWS V14.01,2013-02-28 01:53:00,
2013-02-27 21:58:00,78.1,52.5,30.00,North,0,0.0,0.0,41,0.00,,SCT120,0.00,VWS V14.01,2013-02-28 01:58:00,
2013-02-27 22:03:00,78.1,52.5,30.00,North,0,0.0,0.0,41,0.00,,SCT120,0.00,VWS V14.01,2013-02-28 02:03:00,
2013-02-27 22:08:00,78.3,52.7,30.00,North,0,0.0,0.0,41,0.00,,SCT120,0.00,VWS V14.01,2013-02-28 02:08:00,
2013-02-27 22:13:00,77.9,52.3,30.00,North,0,0.0,0.0,41,0.00,,SCT120,0.00,VWS V14.01,2013-02-28 02:13:00,
2013-02-27 22:18:00,77.5,52.7,30.00,North,0,0.0,0.0,42,0.00,,SCT120,0.00,VWS V14.01,2013-02-28 02:18:00,
2013-02-27 22:23:00,77.2,53.0,30.00,North,0,0.0,0.0,43,0.00,,SCT120,0.00,VWS V14.01,2013-02-28 02:23:00,
2013-02-27 22:28:00,77.0,53.4,30.00,North,0,0.0,0.0,44,0.00,,SCT120,0.00,VWS V14.01,2013-02-28 02:28:00,
2013-02-27 22:33:00,76.8,53.9,30.00,North,0,0.0,0.0,45,0.00,,SCT120,0.00,VWS V14.01,2013-02-28 02:33:00,
2013-02-27 22:38:00,76.8,53.9,30.00,North,0,0.0,0.0,45,0.00,,SCT120,0.00,VWS V14.01,2013-02-28 02:38:00,
2013-02-27 22:43:00,76.8,54.5,30.00,North,0,0.0,0.0,46,0.00,,SCT120,0.00,VWS V14.01,2013-02-28 02:43:00,
2013-02-27 22:48:00,77.0,54.1,30.00,North,0,0.0,0.0,45,0.00,,SCT120,0.00,VWS V14.01,2013-02-28 02:48:00,
2013-02-27 22:53:00,77.2,54.2,30.00,North,0,0.0,0.0,45,0.00,,SCT120,0.00,VWS V14.01,2013-02-28 02:53:00,
2013-02-27 22:58:00,77.0,53.4,30.00,North,0,0.0,0.0,44,0.00,,SCT120,0.00,VWS V14.01,2013-02-28 02:58:00,
2013-02-27 23:03:00,77.0,54.1,30.00,North,0,0.0,0.0,45,0.00,,SCT120,0.00,VWS V14.01,2013-02-28 03:03:00,
2013-02-27 23:08:00,77.0,54.1,30.03,North,0,0.0,0.0,45,0.00,,SCT120,0.00,VWS V14.01,2013-02-28 03:08:00,
2013-02-27 23:13:00,76.6,53.7,30.03,North,0,0.0,0.0,45,0.00,,SCT120,0.00,VWS V14.01,2013-02-28 03:13:00,
2013-02-27 23:18:00,76.6,53.7,30.03,North,0,0.0,0.0,45,0.00,,SCT120,0.00,VWS V14.01,2013-02-28 03:18:00,
2013-02-27 23:23:00,76.3,54.0,30.03,North,0,0.0,0.0,46,0.00,,SCT120,0.00,VWS V14.01,2013-02-28 03:23:00,
2013-02-27 23:28:00,76.5,54.2,30.03,North,0,0.0,0.0,46,0.00,,SCT120,0.00,VWS V14.01,2013-02-28 03:28:00,
2013-02-27 23:33:00,76.5,53.6,30.03,North,0,0.0,0.0,45,0.00,,SCT120,0.00,VWS V14.01,2013-02-28 03:33:00,
2013-02-27 23:38:00,76.1,53.8,30.03,North,0,0.0,0.0,46,0.00,,SCT120,0.00,VWS V14.01,2013-02-28 03:38:00,
2013-02-27 23:43:00,75.9,54.3,30.03,North,0,0.0,0.0,47,0.00,,SCT120,0.00,VWS V14.01,2013-02-28 03:43:00,
2013-02-27 23:48:00,75.7,54.1,30.03,North,0,0.0,0.0,47,0.00,,SCT120,0.00,VWS V14.01,2013-02-28 03:48:00,
2013-02-27 23:53:00,75.6,54.5,30.03,North,0,0.0,0.0,48,0.00,,SCT120,0.00,VWS V14.01,2013-02-28 03:53:00,
2013-02-27 23:58:00,75.4,55.5,30.00,North,0,0.0,0.0,50,0.00,,SCT120,0.00,VWS V14.01,2013-02-28 03:58:00,